Simultaneous Nadir Overpasses (SNOs) Predictions

Prediction of SNOs between NPP and TERRA Satellite Orbit:

Table of predicted SNOs for the next 14.0 days since TLE Epoch: 12/8/2024
Index Date (NPP) Time (NPP) Lat,Lon (NPP) SZA (NPP ) Date (TERRA) Time (TERRA) Lat,Lon (TERRA) SZA (TERRA ) Distance(km) Time Diff (sec)
1 12/08/2024 16:23:23 -73.18, 105.01 83.99 12/08/2024 16:24:35 -73.13, 105.39 84.05 12.98 72
2 12/08/2024 17:14:05 72.96, -87.21 95.79 12/08/2024 17:13:58 72.96, -87.28 95.79 2.30 7
3 12/08/2024 18:04:37 -72.37, 81.32 84.84 12/08/2024 18:03:28 -72.45, 79.43 84.69 64.23 69
4 12/11/2024 03:35:51 -73.04, -62.83 83.90 12/11/2024 03:36:41 -73.06, -62.82 83.89 2.14 50
5 12/11/2024 04:26:36 72.98, 104.62 96.04 12/11/2024 04:26:02 72.99, 104.71 96.05 3.24 34
6 12/13/2024 14:48:21 -73.02, 129.10 83.74 12/13/2024 14:48:45 -73.04, 129.09 83.73 2.53 24
7 12/13/2024 15:39:06 72.96, -63.47 96.20 12/13/2024 15:38:06 72.96, -63.39 96.21 2.69 60
8 12/16/2024 01:10:13 73.32, 153.01 96.71 12/16/2024 01:11:24 73.21, 153.69 96.57 25.02 71
9 12/16/2024 02:00:51 -73.01, -39.01 83.62 12/16/2024 02:00:48 -73.03, -38.99 83.60 2.02 3
10 12/16/2024 02:51:26 72.45, 129.46 95.80 12/16/2024 02:50:17 72.51, 127.72 95.93 58.71 69
11 12/18/2024 12:22:38 73.07, -14.58 96.54 12/18/2024 12:23:28 73.08, -14.60 96.54 1.13 50
12 12/18/2024 13:13:21 -73.02, 152.86 83.52 12/18/2024 13:12:50 -73.02, 152.94 83.52 2.75 31
13 12/20/2024 23:35:06 73.05, 177.36
